Hourly Weather Gogolino

Today, 29 November, Sunday

Time Temperature Precipitation Wind Pressure Humidity
00:00 -4°C° 0.1 mm 3 mps 756 mmHg 90%
01:00 -5°C° 0.1 mm 3 mps 757 mmHg 90%
02:00 -5°C° 0.1 mm 3 mps 757 mmHg 91%
03:00 -5°C° 0 mm 3 mps 757 mmHg 90%
04:00 -5°C° 0 mm 3 mps 757 mmHg 90%
05:00 -5°C° 0 mm 3 mps 757 mmHg 90%
06:00 -5°C° 0 mm 3 mps 756 mmHg 89%
07:00 -5°C° 0 mm 4 mps 756 mmHg 88%
08:00 -5°C° 0 mm 4 mps 756 mmHg 88%
09:00 -4°C° 0 mm 4 mps 756 mmHg 88%
10:00 -4°C° 0 mm 4 mps 756 mmHg 88%
11:00 -4°C° 0 mm 5 mps 756 mmHg 89%
12:00 -3°C° 0.2 mm 4 mps 755 mmHg 91%
13:00 -2°C° 0.2 mm 4 mps 755 mmHg 92%
14:00 -2°C° 0.2 mm 4 mps 755 mmHg 94%
15:00 -1°C° 0.1 mm 4 mps 755 mmHg 92%
16:00 -1°C° 0.1 mm 5 mps 755 mmHg 91%
17:00 0°C° 0.1 mm 5 mps 755 mmHg 89%
18:00 0°C° 0 mm 4 mps 755 mmHg 91%
19:00 0°C° 0 mm 4 mps 755 mmHg 93%
20:00 0°C° 0 mm 4 mps 754 mmHg 95%
21:00 0°C° 0.1 mm 4 mps 754 mmHg 95%
22:00 0°C° 0.1 mm 4 mps 754 mmHg 95%
23:00 +1°C° 0.1 mm 4 mps 754 mmHg 95%

Tomorrow, 30 November, Monday

Time Temperature Precipitation Wind Pressure Humidity
00:00 +1°C° 0.1 mm 4 mps 754 mmHg 94%
01:00 +1°C° 0.1 mm 4 mps 754 mmHg 94%
02:00 +1°C° 0.1 mm 4 mps 754 mmHg 94%
03:00 +1°C° 0.2 mm 4 mps 754 mmHg 95%
04:00 +1°C° 0.2 mm 4 mps 754 mmHg 96%
05:00 +1°C° 0.2 mm 4 mps 753 mmHg 96%
06:00 +1°C° 0.2 mm 4 mps 753 mmHg 96%
07:00 +1°C° 0.2 mm 4 mps 754 mmHg 96%
08:00 +1°C° 0.2 mm 4 mps 754 mmHg 96%
09:00 +1°C° 0.2 mm 4 mps 753 mmHg 96%
10:00 +1°C° 0.2 mm 4 mps 753 mmHg 95%
11:00 +1°C° 0.2 mm 4 mps 753 mmHg 95%
12:00 +1°C° 0.3 mm 5 mps 753 mmHg 95%
13:00 0°C° 0.3 mm 5 mps 753 mmHg 96%
14:00 0°C° 0.3 mm 5 mps 752 mmHg 96%
15:00 0°C° 0.3 mm 4 mps 752 mmHg 96%
16:00 0°C° 0.3 mm 4 mps 752 mmHg 96%
17:00 0°C° 0.3 mm 4 mps 752 mmHg 96%
18:00 +1°C° 0.7 mm 3 mps 752 mmHg 96%
19:00 0°C° 0.7 mm 3 mps 752 mmHg 96%
20:00 +1°C° 0.7 mm 2 mps 752 mmHg 97%
21:00 -1°C° 0.4 mm 2 mps 752 mmHg 95%
22:00 -1°C° 0.4 mm 2 mps 752 mmHg 94%
23:00 -1°C° 0.4 mm 2 mps 752 mmHg 92%

Day after tomorrow, 1 December, Tuesday

Time Temperature Precipitation Wind Pressure Humidity
00:00 -1°C° 0 mm 2 mps 752 mmHg 90%
01:00 -1°C° 0 mm 2 mps 753 mmHg 87%
02:00 -1°C° 0 mm 2 mps 753 mmHg 84%
03:00 -2°C° 0 mm 2 mps 753 mmHg 83%
04:00 -2°C° 0 mm 2 mps 753 mmHg 81%
05:00 -2°C° 0 mm 2 mps 753 mmHg 80%
06:00 -2°C° 0 mm 2 mps 754 mmHg 80%
07:00 -3°C° 0 mm 2 mps 754 mmHg 79%
08:00 -3°C° 0 mm 2 mps 755 mmHg 79%
09:00 -3°C° 0 mm 2 mps 755 mmHg 80%
10:00 -2°C° 0 mm 2 mps 755 mmHg 80%
11:00 -2°C° 0 mm 3 mps 755 mmHg 81%
12:00 -2°C° 0 mm 2 mps 755 mmHg 81%
13:00 -2°C° 0 mm 2 mps 756 mmHg 81%
14:00 -2°C° 0 mm 2 mps 756 mmHg 82%
15:00 -3°C° 0 mm 2 mps 756 mmHg 83%
16:00 -3°C° 0 mm 2 mps 756 mmHg 85%
17:00 -3°C° 0 mm 2 mps 757 mmHg 86%
18:00 -3°C° 0 mm 2 mps 757 mmHg 87%
19:00 -4°C° 0 mm 2 mps 758 mmHg 89%
20:00 -4°C° 0 mm 2 mps 758 mmHg 90%
21:00 -4°C° 0 mm 2 mps 758 mmHg 90%
22:00 -4°C° 0 mm 2 mps 758 mmHg 90%
23:00 -4°C° 0 mm 2 mps 759 mmHg 91%

2 December, Wednesday

Time Temperature Precipitation Wind Pressure Humidity
00:00 -4°C° 0 mm 2 mps 759 mmHg 91%
01:00 -4°C° 0 mm 2 mps 759 mmHg 91%
02:00 -4°C° 0 mm 2 mps 759 mmHg 91%
03:00 -2°C° 0 mm 1 mps 759 mmHg 90%
04:00 -2°C° 0 mm 1 mps 759 mmHg 90%
05:00 -2°C° 0 mm 1 mps 759 mmHg 89%
06:00 -2°C° 0 mm 1 mps 759 mmHg 89%
07:00 -2°C° 0 mm 1 mps 760 mmHg 89%
08:00 -2°C° 0 mm 1 mps 760 mmHg 88%
09:00 -1°C° 0 mm 1 mps 760 mmHg 86%
10:00 -1°C° 0 mm 1 mps 760 mmHg 85%
11:00 -3°C° 0 mm 2 mps 760 mmHg 83%
12:00 -1°C° 0 mm 1 mps 760 mmHg 83%
13:00 -1°C° 0 mm 1 mps 760 mmHg 84%
14:00 -1°C° 0 mm 1 mps 760 mmHg 84%
15:00 -1°C° 0 mm 1 mps 760 mmHg 86%
16:00 -1°C° 0 mm 1 mps 760 mmHg 87%
17:00 -2°C° 0 mm 1 mps 760 mmHg 89%
18:00 -2°C° 0 mm 1 mps 760 mmHg 89%
19:00 -2°C° 0 mm 1 mps 760 mmHg 88%
20:00 -4°C° 0 mm 2 mps 760 mmHg 88%
21:00 -4°C° 0 mm 2 mps 760 mmHg 90%
22:00 -4°C° 0 mm 2 mps 760 mmHg 92%
23:00 -3°C° 0 mm 2 mps 760 mmHg 94%

3 December, Thursday

Time Temperature Precipitation Wind Pressure Humidity
00:00 -3°C° 0 mm 2 mps 759 mmHg 92%
01:00 -3°C° 0 mm 2 mps 759 mmHg 89%
02:00 -4°C° 0 mm 3 mps 759 mmHg 87%
03:00 -4°C° 0 mm 3 mps 759 mmHg 88%
04:00 -4°C° 0 mm 2 mps 759 mmHg 89%
05:00 -4°C° 0 mm 2 mps 758 mmHg 90%
06:00 -4°C° 0 mm 2 mps 758 mmHg 89%
07:00 -5°C° 0 mm 3 mps 758 mmHg 87%
08:00 -5°C° 0 mm 3 mps 758 mmHg 86%
09:00 -5°C° 0 mm 3 mps 758 mmHg 84%
10:00 -5°C° 0 mm 3 mps 758 mmHg 82%
11:00 -5°C° 0 mm 3 mps 758 mmHg 80%
12:00 -5°C° 0 mm 3 mps 758 mmHg 80%
13:00 -5°C° 0 mm 3 mps 758 mmHg 79%
14:00 -5°C° 0 mm 3 mps 758 mmHg 79%
15:00 -5°C° 0 mm 3 mps 757 mmHg 80%
16:00 -5°C° 0 mm 3 mps 757 mmHg 81%
17:00 -5°C° 0 mm 3 mps 757 mmHg 81%
18:00 -5°C° 0 mm 3 mps 757 mmHg 81%
19:00 -6°C° 0 mm 3 mps 757 mmHg 81%
20:00 -6°C° 0 mm 3 mps 757 mmHg 81%
21:00 -6°C° 0 mm 3 mps 757 mmHg 81%
22:00 -6°C° 0 mm 3 mps 757 mmHg 80%
23:00 -6°C° 0 mm 3 mps 757 mmHg 80%

4 December, Friday

Time Temperature Precipitation Wind Pressure Humidity
00:00 -6°C° 0 mm 3 mps 757 mmHg 83%
01:00 -6°C° 0 mm 3 mps 757 mmHg 86%
02:00 -6°C° 0 mm 3 mps 757 mmHg 89%
03:00 -6°C° 0.1 mm 3 mps 756 mmHg 88%
04:00 -6°C° 0.1 mm 3 mps 756 mmHg 87%
05:00 -7°C° 0.1 mm 3 mps 756 mmHg 86%
06:00 -7°C° 0 mm 3 mps 756 mmHg 86%
07:00 -7°C° 0 mm 3 mps 756 mmHg 85%
08:00 -7°C° 0 mm 3 mps 756 mmHg 85%
09:00 -6°C° 0 mm 3 mps 756 mmHg 84%
10:00 -6°C° 0 mm 3 mps 756 mmHg 83%
11:00 -6°C° 0 mm 3 mps 756 mmHg 82%
12:00 -6°C° 0 mm 3 mps 756 mmHg 82%
13:00 -6°C° 0 mm 3 mps 756 mmHg 82%
14:00 -6°C° 0 mm 3 mps 756 mmHg 82%
15:00 -6°C° 0 mm 3 mps 756 mmHg 82%
16:00 -6°C° 0 mm 3 mps 756 mmHg 83%
17:00 -6°C° 0 mm 3 mps 756 mmHg 83%
18:00 -6°C° 0 mm 3 mps 756 mmHg 83%
19:00 -6°C° 0 mm 3 mps 756 mmHg 84%
20:00 -6°C° 0 mm 3 mps 756 mmHg 84%
21:00 -7°C° 0 mm 3 mps 756 mmHg 84%
22:00 -7°C° 0 mm 3 mps 756 mmHg 84%
23:00 -7°C° 0 mm 3 mps 756 mmHg 84%
Show more

We Need Your Consent

Meteoprog and our Service Providers may store and access personal data such as cookies, device identifiers or other similar technologies on your device and process such data to personalise content and ads, as well as provide social media features and to analyse the traffic.

  • Store and/or access information on your device

    Cookies, device identifiers or other information can be stored or accessed on your device for the purposes indicated above.

  • Personalised ads and content, ad and content measurement, audience insights, and products development

    Ads and content can be personalised based on a profile. More data can be added to better personalise ads and content. Ad and content performance can be measured. Insights about the audience who saw the ads and content can be derived. Such data can be used to develop or improve user’s experience, systems and software.

By clicking ‘I Agree’ you will allow the use of indicated cookies, device identifiers, web beacons or other similar technologies. Your settings can be changed in the browser on your device.

For certain purposes, legitimate interests may be relied on, rather than consent. You can read more about this in our Privacy and Cookie Policy.